Wind_Speed
7 7 8 9 9 10 10 11 11 12 12 12 13 14 14 14 14 14 14 15 14 13 14 14 13 12 11 11 11 11 10 10 9 9 8 8 7 6 6 6 6 6 6 6
7 7 8 8 9 10 11 11 11 12 12 13 14 15 15 14 14 14 14 15 15 14 14 14 14 13 12 11 11 11 10 9 9 9 8 8 8 7 7 7 7 6 6 6
7 7 8 9 10 10 11 12 12 12 12 13 14 15 15 14 14 14 15 15 15 15 14 14 14 13 13 12 11 11 10 9 9 9 9 8 8 7 7 7 7 7 6 6
8 8 8 8 9 10 11 11 11 11 12 13 14 13 14 14 14 15 15 15 15 15 14 13 14 14 14 13 12 12 11 10 10 10 10 9 8 8 8 7 7 7 7 6
8 8 8 8 9 9 11 11 11 11 12 12 13 13 13 14 14 14 14 14 14 15 15 15 14 15 15 14 13 13 12 12 11 11 11 10 9 8 8 8 7 7 7 7
8 9 8 8 9 9 10 11 10 10 11 12 12 13 12 13 13 13 13 14 14 15 16 16 16 16 16 15 14 13 12 12 12 12 11 10 10 9 8 7 7 7 7 7
8 8 8 8 9 10 10 9 9 9 10 10 11 12 13 13 13 13 14 14 14 14 16 16 16 16 16 15 15 14 13 12 12 11 11 10 9 9 9 8 7 6 6 7
8 9 9 8 8 9 9 9 9 9 9 9 11 13 13 13 14 14 14 14 15 15 15 16 15 16 16 15 15 14 14 13 12 11 10 10 10 10 9 8 7 7 6 7
9 9 9 8 8 10 10 10 9 10 11 11 12 13 13 14 14 13 13 14 14 15 14 14 14 14 15 16 15 14 13 12 12 12 11 11 10 10 10 9 8 8 8 7
10 10 10 9 9 10 11 11 11 11 11 11 11 12 12 12 13 13 12 13 13 13 14 14 13 13 14 15 15 14 13 13 13 13 12 11 11 11 11 10 10 9 9 8
11 10 9 10 9 9 10 11 12 11 11 11 11 11 12 12 12 12 12 12 12 12 13 14 15 14 15 15 15 14 14 13 13 13 12 12 12 12 12 11 10 9 9 9
12 10 10 11 10 10 10 12 12 12 11 11 12 11 11 11 11 11 11 12 12 12 13 13 14 14 15 15 15 15 14 14 14 13 13 13 12 12 12 12 11 11 10 9
13 12 11 11 11 11 11 12 12 13 13 12 12 11 10 11 11 12 12 12 13 13 13 13 12 13 14 14 14 15 15 15 14 14 13 13 13 12 13 13 12 12 11 11
13 13 13 13 12 11 12 12 13 12 13 13 13 12 10 11 11 12 12 12 12 13 13 13 13 14 14 14 15 15 15 15 15 14 14 14 13 13 13 14 13 12 12 12
14 14 14 14 13 13 13 13 14 14 13 13 13 13 11 13 12 13 12 12 12 12 13 13 13 13 14 14 15 16 16 16 16 15 14 14 14 14 14 14 13 13 13 13
15 15 14 13 14 14 14 13 13 14 14 14 14 13 12 14 14 14 13 13 13 13 13 13 13 13 13 14 15 15 16 16 16 15 15 15 14 14 14 14 13 14 14 14
15 15 15 14 14 15 16 14 14 14 14 14 14 13 14 14 14 14 14 14 14 14 14 14 14 13 14 14 15 15 15 15 16 16 15 16 15 14 14 14 15 15 15 14
15 16 16 16 15 16 14 13 13 14 14 14 14 15 15 15 14 14 14 14 14 14 14 15 15 15 15 15 15 15 16 16 16 16 15 15 15 15 15 15 16 16 15 15
17 17 17 16 16 16 15 14 14 15 15 14 14 16 17 16 16 14 14 14 14 14 15 16 16 16 15 15 15 16 16 17 16 16 16 16 15 15 15 15 16 16 16 16
18 18 18 17 17 17 16 15 14 15 16 15 15 15 16 16 17 15 13 14 14 15 15 15 16 16 16 16 16 16 16 16 17 16 16 16 16 16 15 15 15 15 15 16
18 18 18 18 18 18 17 16 15 15 16 15 16 15 15 16 16 15 15 14 14 15 15 15 16 16 17 16 16 16 17 17 17 17 16 16 16 16 16 16 15 16 16 17
18 19 20 20 20 20 18 17 16 16 16 16 17 17 17 17 16 16 16 15 14 15 15 15 15 16 16 16 16 16 16 16 16 17 17 17 17 16 16 16 17 17 18 19
20 20 20 20 20 18 18 17 17 18 17 17 17 17 17 16 17 17 17 16 16 16 15 15 15 16 17 17 17 17 17 17 17 17 18 18 17 17 17 18 19 19 19 20
22 20 21 21 20 19 18 17 17 18 18 17 17 16 16 17 17 17 17 17 17 16 16 16 16 17 18 18 18 17 17 17 18 18 19 19 19 19 18 19 19 20 20 20
23 22 21 21 21 20 19 18 18 18 17 17 17 17 17 17 16 16 17 17 17 17 16 17 17 18 19 18 19 18 18 18 18 19 20 20 20 20 20 20 21 21 22 22
25 24 23 22 22 22 21 19 19 19 18 18 17 17 17 16 16 17 17 17 17 17 17 17 17 17 18 18 18 18 19 19 19 19 19 20 20 21 21 21 22 22 23 24
Wind_Direction
255 255 255 256 251 242 244 244 245 248 244 241 242 244 244 241 243 242 243 243 241 242 241 237 235 231 228 224 217 218 222 228 229 232 238 245 247 258 273 287 296 304 311 314
258 258 256 253 250 242 243 241 241 247 245 243 242 242 245 242 241 241 241 242 246 242 240 234 233 230 227 221 217 222 226 230 229 231 236 242 246 259 271 281 290 298 306 310
254 258 256 250 246 244 243 244 238 240 241 242 247 245 246 242 240 241 242 243 244 242 239 233 231 226 224 219 216 224 227 231 231 236 239 241 249 260 269 280 285 292 299 306
250 254 256 251 245 243 241 243 242 243 241 241 244 248 245 244 242 242 243 242 241 240 233 230 229 225 223 220 221 226 228 233 236 240 246 246 251 259 268 279 287 288 291 298
253 258 257 252 246 241 238 238 237 241 243 246 248 249 253 251 244 242 242 243 240 238 234 230 227 228 227 223 223 227 230 235 238 239 246 248 253 260 268 273 278 286 288 291
256 258 256 251 241 235 234 233 232 237 241 248 249 245 248 254 251 247 245 244 242 239 233 231 229 229 229 226 224 227 232 236 238 240 243 245 251 257 265 273 279 280 286 295
258 257 256 247 235 230 230 231 233 239 245 252 251 246 249 254 256 251 250 247 240 237 232 233 231 231 226 226 228 229 231 234 236 240 240 242 248 255 261 267 275 280 282 287
263 262 256 253 243 236 234 228 233 238 242 250 250 248 251 255 257 253 251 248 241 238 236 234 232 230 227 229 230 232 236 236 234 235 240 247 249 254 260 264 271 276 280 283
250 256 255 248 244 236 234 229 225 233 236 245 251 250 254 255 255 251 248 247 241 237 238 236 233 232 230 229 230 233 238 239 237 237 239 245 249 254 258 262 264 266 272 278
247 253 257 250 245 242 235 226 223 231 231 236 243 250 256 257 256 253 250 245 238 239 237 234 233 232 230 230 232 233 235 238 238 239 242 246 251 257 260 261 262 266 271 276
241 246 251 248 246 245 233 229 231 233 238 234 244 250 257 263 258 252 250 244 240 240 236 234 233 232 232 229 230 233 235 236 236 238 243 248 251 253 256 259 261 261 264 267
235 238 247 249 246 244 238 232 233 233 235 237 246 247 252 262 259 254 248 243 238 236 236 233 232 234 233 231 231 234 235 235 237 239 245 247 249 252 255 259 261 261 260 264
236 232 241 243 245 242 241 237 236 237 238 238 248 247 249 263 261 257 251 246 238 234 234 232 233 235 236 234 233 235 236 237 238 241 246 247 250 253 254 258 262 261 260 262
237 236 240 242 248 247 246 241 239 238 235 241 246 249 250 257 259 256 252 244 239 235 235 233 233 234 236 235 235 238 239 239 239 240 244 244 247 253 257 257 258 260 259 263
240 237 235 238 243 251 248 245 243 239 238 241 244 247 249 256 257 256 254 246 238 237 240 238 235 236 239 240 240 240 241 239 238 239 241 245 249 254 257 257 258 261 261 265
241 236 234 238 242 248 249 247 245 242 241 240 242 245 246 255 256 255 253 250 244 241 243 242 240 241 241 242 243 242 241 238 238 239 241 244 247 251 254 256 260 263 263 266
239 235 234 238 245 249 247 250 246 244 244 244 240 241 246 252 258 258 254 251 249 244 245 245 242 243 244 245 244 242 239 238 237 239 242 243 246 251 253 256 262 263 263 264
237 237 237 236 241 247 252 253 247 249 249 246 244 242 248 255 259 260 256 254 251 248 246 246 246 246 249 247 244 242 238 236 237 240 241 243 245 249 253 257 261 263 264 263
236 238 238 235 238 247 254 255 249 251 251 247 245 246 249 254 258 258 255 253 250 249 249 248 247 246 247 247 245 241 238 237 240 244 244 244 246 249 253 257 261 262 264 265
236 239 241 240 242 245 249 256 254 251 249 246 249 253 254 256 258 260 257 252 253 253 252 250 248 245 245 247 246 240 238 240 242 245 245 245 247 249 252 256 262 265 267 270
237 239 240 241 243 245 249 253 252 248 246 249 254 256 255 255 260 261 257 254 255 255 255 253 250 247 246 246 246 244 242 243 243 243 244 245 246 249 253 256 261 267 270 272
239 240 240 241 242 245 251 253 250 250 252 255 256 258 257 256 258 258 256 254 256 255 257 255 251 247 247 248 247 244 244 245 244 243 243 245 247 251 255 258 264 270 273 274
240 243 243 244 246 248 252 252 249 249 253 256 256 257 257 256 258 257 256 256 255 256 257 253 251 250 250 250 248 246 246 246 245 245 244 244 248 252 258 262 267 270 274 275
238 242 242 243 244 245 249 249 249 250 251 252 254 255 256 254 255 255 255 255 255 256 255 252 252 253 253 251 249 249 250 249 246 247 248 248 252 257 261 266 270 273 274 276
237 239 240 242 244 244 246 247 248 249 250 252 253 254 255 256 256 255 253 254 254 251 252 254 257 255 253 251 249 249 252 254 253 254 252 252 254 259 263 268 270 273 275 277
236 240 241 242 243 245 247 247 247 248 249 251 252 254 256 256 256 255 254 255 255 252 253 255 258 256 254 251 251 252 252 253 253 255 256 256 258 263 267 270 273 274 277 277
Height
5828 5830 5830 5831 5832 5833 5834 5836 5836 5838 5839 5841 5843 5844 5846 5848 5849 5851 5853 5854 5856 5858 5859 5861 5864 5865 5867 5870 5872 5874 5876 5878 5880 5881 5882 5883 5884 5885 5886 5885 5885 5885 5884 5884
5827 5828 5829 5829 5830 5831 5832 5834 5835 5836 5837 5839 5840 5842 5843 5845 5847 5848 5850 5852 5853 5856 5858 5860 5861 5864 5865 5868 5870 5873 5875 5877 5878 5879 5881 5882 5883 5884 5884 5884 5884 5884 5883 5883
5825 5827 5826 5827 5828 5829 5830 5832 5832 5834 5835 5837 5838 5840 5841 5843 5845 5846 5848 5850 5851 5853 5855 5858 5860 5862 5864 5867 5869 5872 5874 5875 5877 5878 5879 5881 5882 5882 5883 5883 5883 5883 5882 5882
5823 5824 5825 5825 5826 5827 5828 5829 5830 5831 5833 5834 5837 5838 5839 5840 5842 5844 5846 5847 5849 5851 5853 5855 5857 5860 5862 5865 5867 5870 5872 5873 5875 5876 5878 5879 5880 5881 5882 5882 5881 5881 5881 5881
5821 5822 5822 5823 5824 5825 5826 5828 5829 5829 5831 5833 5834 5835 5837 5838 5840 5842 5843 5845 5847 5848 5850 5853 5855 5858 5860 5863 5865 5868 5870 5871 5873 5874 5876 5877 5878 5879 5880 5880 5880 5880 5880 5879
5819 5820 5820 5821 5822 5823 5824 5826 5827 5827 5829 5831 5832 5834 5835 5835 5837 5839 5841 5842 5844 5846 5848 5850 5853 5855 5858 5860 5863 5865 5867 5869 5870 5872 5873 5875 5876 5877 5878 5878 5878 5878 5878 5878
5817 5818 5819 5819 5820 5822 5823 5825 5826 5826 5827 5829 5830 5832 5833 5833 5835 5837 5839 5840 5842 5844 5846 5848 5850 5853 5856 5858 5860 5862 5864 5866 5868 5870 5871 5872 5874 5875 5876 5876 5877 5877 5877 5876
5816 5816 5817 5818 5819 5820 5821 5823 5825 5826 5827 5828 5829 5830 5832 5832 5833 5835 5836 5838 5839 5841 5843 5845 5848 5850 5853 5855 5858 5860 5862 5864 5866 5867 5869 5871 5872 5873 5874 5874 5875 5875 5875 5875
5814 5815 5815 5816 5817 5818 5819 5820 5823 5824 5825 5826 5827 5828 5829 5830 5831 5832 5834 5835 5837 5839 5841 5843 5845 5848 5850 5853 5855 5857 5859 5861 5863 5865 5867 5868 5870 5871 5871 5872 5873 5873 5873 5873
5811 5813 5814 5815 5816 5817 5818 5819 5821 5822 5823 5824 5825 5826 5827 5827 5829 5830 5831 5833 5834 5836 5839 5841 5843 5845 5848 5850 5852 5855 5857 5859 5861 5862 5864 5866 5867 5868 5869 5870 5870 5871 5871 5871
5809 5811 5812 5813 5814 5815 5817 5818 5819 5819 5820 5822 5823 5826 5824 5825 5826 5828 5829 5830 5832 5834 5836 5838 5840 5843 5845 5847 5849 5851 5854 5856 5858 5860 5861 5863 5864 5865 5866 5867 5868 5869 5869 5869
5807 5808 5809 5810 5812 5813 5814 5815 5817 5818 5819 5820 5821 5825 5822 5823 5824 5825 5827 5828 5830 5832 5834 5835 5837 5840 5842 5844 5846 5849 5851 5853 5855 5857 5859 5860 5861 5863 5864 5864 5865 5866 5866 5867
5804 5806 5807 5808 5811 5811 5812 5813 5814 5816 5817 5818 5819 5822 5819 5821 5822 5823 5824 5826 5827 5829 5831 5833 5835 5837 5839 5841 5843 5846 5848 5850 5852 5854 5855 5857 5858 5860 5861 5862 5862 5863 5864 5864
5802 5803 5805 5807 5807 5808 5809 5810 5812 5813 5814 5815 5816 5817 5817 5819 5820 5821 5822 5823 5825 5827 5829 5830 5832 5834 5836 5838 5840 5842 5844 5846 5848 5850 5852 5853 5855 5856 5857 5858 5859 5860 5861 5861
5798 5800 5802 5803 5804 5805 5806 5808 5809 5810 5811 5813 5814 5814 5815 5817 5818 5818 5819 5821 5823 5824 5826 5828 5829 5831 5833 5834 5836 5838 5840 5842 5845 5847 5849 5850 5852 5853 5854 5855 5856 5857 5858 5858
5795 5797 5799 5800 5801 5802 5803 5805 5806 5807 5809 5810 5811 5813 5813 5814 5815 5816 5817 5818 5820 5821 5823 5825 5826 5828 5829 5831 5833 5834 5836 5839 5841 5843 5845 5847 5848 5849 5850 5851 5853 5853 5854 5855
5792 5793 5795 5797 5798 5799 5800 5802 5803 5804 5806 5807 5809 5811 5810 5811 5812 5813 5814 5815 5816 5818 5819 5821 5823 5824 5825 5827 5829 5831 5833 5835 5837 5839 5841 5843 5844 5846 5847 5848 5849 5850 5850 5851
5788 5790 5792 5794 5796 5796 5799 5799 5800 5801 5803 5804 5806 5806 5807 5808 5808 5809 5810 5811 5813 5814 5816 5817 5819 5821 5822 5823 5825 5827 5829 5831 5833 5835 5837 5839 5841 5842 5843 5844 5845 5846 5847 5847
5784 5786 5788 5790 5791 5793 5795 5796 5797 5798 5800 5801 5802 5803 5803 5804 5805 5806 5807 5808 5809 5810 5812 5813 5815 5817 5818 5819 5821 5823 5825 5827 5829 5832 5833 5835 5837 5838 5839 5841 5841 5842 5843 5843
5780 5782 5784 5786 5787 5789 5792 5792 5793 5795 5796 5797 5798 5799 5800 5800 5801 5803 5803 5804 5805 5807 5808 5809 5811 5812 5814 5816 5817 5819 5821 5823 5825 5827 5829 5831 5832 5834 5835 5836 5837 5838 5839 5839
5776 5777 5779 5781 5783 5784 5787 5788 5790 5792 5793 5793 5794 5795 5796 5797 5798 5799 5800 5801 5802 5803 5804 5805 5807 5808 5810 5812 5813 5815 5817 5819 5821 5823 5825 5826 5828 5830 5831 5832 5833 5833 5834 5834
5771 5773 5775 5777 5779 5782 5783 5784 5786 5787 5788 5789 5790 5791 5792 5793 5794 5795 5796 5797 5798 5799 5800 5801 5802 5804 5806 5807 5809 5811 5813 5815 5817 5819 5820 5822 5824 5825 5826 5827 5828 5829 5829 5829
5766 5769 5771 5773 5776 5777 5778 5780 5781 5782 5784 5785 5786 5787 5788 5789 5790 5791 5792 5793 5794 5795 5796 5797 5798 5800 5801 5803 5805 5807 5808 5810 5812 5814 5816 5818 5819 5821 5822 5823 5823 5823 5824 5824
5761 5763 5766 5768 5770 5772 5773 5775 5776 5778 5779 5780 5781 5782 5783 5784 5785 5786 5787 5789 5790 5790 5791 5793 5794 5795 5797 5798 5800 5802 5804 5805 5807 5809 5811 5813 5814 5816 5817 5817 5818 5818 5818 5818
5755 5758 5760 5762 5765 5767 5769 5770 5772 5773 5774 5776 5777 5778 5779 5780 5781 5782 5783 5784 5785 5786 5787 5788 5789 5790 5792 5793 5795 5797 5799 5800 5802 5804 5806 5807 5809 5810 5811 5812 5812 5812 5812 5812
5750 5753 5755 5758 5760 5762 5764 5765 5767 5769 5770 5771 5772 5773 5774 5775 5776 5777 5778 5780 5781 5782 5783 5784 5785 5786 5787 5788 5790 5792 5794 5795 5797 5798 5800 5801 5803 5804 5805 5805 5806 5805 5805 5805